Change the Weather History Date:

Sunday, September 18, 2011

  Actual Average Record
Temperature  
Mean Temperature 61 °F -  
Max Temperature 66 °F 86 °F 91 °F (2007)
Min Temperature 56 °F 61 °F 45 °F (2012)
Degree Days  
Heating Degree Days 4    
Growing Degree Days 11 (Base 50)    
Moisture  
Dew Point 58 °F    
Average Humidity 86    
Maximum Humidity 100    
Minimum Humidity 64    
Precipitation  
Precipitation 0.02 in - - ()
Sea Level Pressure  
Sea Level Pressure 30.08 in    
Wind  
Wind Speed 11 mph (SE)    
Max Wind Speed 16 mph    
Max Gust Speed -    
Visibility 8 miles    
Events Rain    
Averages and records for this station are not official NWS values.
T = Trace of Precipitation, MM = Missing Value Source: NWS Daily Summary

Daily Weather History Graph

Daily Weather History Graph

Search for Another Location

Airport or City:

Trip Planner

Search our weather history database for the weather conditions in past years. The results will help you decide how hot, cold, wet, or windy it might be!

Date:

Astronomy

Sep. 18, 2011 Rise Set
Actual Time 6:39 AM CDT 6:59 PM CDT
Civil Twilight 6:11 AM CDT 7:27 PM CDT
Nautical Twilight 5:39 AM CDT 7:59 PM CDT
Astronomical Twilight 5:06 AM CDT 8:31 PM CDT
Moon 10:13 PM CDT (9/18) 12:37 PM CDT (9/18)
Length of Visible Light 13h 15m
Length of Day
12h 20m
Waning Gibbous, 68% of the Moon is Illuminated
Sep 18
Waning Gibbous
Sep 20
Last Quarter
Sep 27
New
Oct 3
First Quarter
Oct 11
Full

Hourly Weather History & Observations

Time (CDT) Temp. Dew Point Humidity Pressure Visibility Wind Dir Wind Speed Gust Speed Precip Events Conditions
12:56 AM 59.9 °F 47.8 °F 64% 30.17 in 10.0 mi SE 8.1 mph - 0.00 in   Overcast
1:56 AM 59.9 °F 47.8 °F 64% 30.17 in 10.0 mi ESE 6.9 mph - N/A   Overcast
2:56 AM 57.9 °F 48.9 °F 72% 30.16 in 10.0 mi ESE 9.2 mph - 0.00 in   Overcast
3:56 AM 59.0 °F 48.9 °F 69% 30.16 in 10.0 mi ESE 8.1 mph - N/A   Overcast
4:56 AM 59.0 °F 48.9 °F 69% 30.16 in 10.0 mi ESE 10.4 mph - N/A   Mostly Cloudy
6:56 AM 56.8 °F 52.0 °F 84% 30.17 in 10.0 mi ESE 10.4 mph - N/A   Overcast
7:56 AM 57.9 °F 52.9 °F 83% 30.17 in 10.0 mi ESE 10.4 mph - N/A   Overcast
9:16 AM 57.2 °F 53.6 °F 88% 30.17 in 5.0 mi SE 11.5 mph - 0.00 in Rain Light Rain
10:03 AM 57.2 °F 57.2 °F 100% 30.16 in 3.0 mi SE 11.5 mph - 0.00 in Rain Light Rain
10:56 AM 61.0 °F 59.0 °F 93% 30.13 in 10.0 mi ESE 15.0 mph - 0.00 in   Mostly Cloudy
11:56 AM 61.9 °F 59.0 °F 90% 30.12 in 6.0 mi SE 15.0 mph - 0.00 in Rain Light Rain
12:56 PM 61.9 °F 59.9 °F 93% 30.11 in 5.0 mi SSE 11.5 mph - 0.01 in Rain Light Rain
1:56 PM 63.0 °F 61.0 °F 93% 30.07 in 7.0 mi SE 12.7 mph - 0.01 in   Mostly Cloudy
2:11 PM 64.4 °F 62.6 °F 94% 30.07 in 9.0 mi SE 12.7 mph - 0.00 in   Mostly Cloudy
2:56 PM 64.9 °F 59.9 °F 84% 30.05 in 10.0 mi SSE 15.0 mph - 0.00 in   Overcast
3:28 PM 66.2 °F 60.8 °F 83% 30.03 in 10.0 mi SE 16.1 mph - N/A   Mostly Cloudy
3:56 PM 65.8 °F 61.9 °F 87% 30.01 in 10.0 mi SE 16.1 mph - N/A   Overcast
4:56 PM 65.8 °F 63.0 °F 90% 30.00 in 8.0 mi SSE 16.1 mph - N/A   Overcast
6:56 PM 64.9 °F 63.9 °F 96% 29.97 in 4.0 mi South 12.7 mph - 0.00 in   Overcast
7:40 PM 64.4 °F 64.4 °F 100% 29.97 in 7.0 mi South 11.5 mph - N/A   Overcast
7:56 PM 65.8 °F 64.9 °F 97% 29.96 in 7.0 mi South 15.0 mph - N/A   Overcast
9:56 PM 65.8 °F 64.9 °F 97% 29.98 in 7.0 mi South 15.0 mph - N/A   Overcast
10:56 PM 65.8 °F 64.9 °F 97% 29.96 in 5.0 mi South 13.8 mph - N/A   Overcast